CW8198 Weather Reports


time (UTC)temp
C
wind
direction
speed
KPH
gust
KPH
rain 1hr
cm
rain 24hr
cm
rain mn
cm
humidity
%
barometer
mb
20260510072300 6 9 1.6 3.2 0.00 0.00 0.00 65 1018.6
20260510071259 6 334 0.0 1.6 0.00 0.00 0.00 65 1018.6
20260510070759 7 108 0.0 1.6 0.00 0.00 0.00 64 1018.7
20260510070258 7 334 0.0 1.6 0.00 0.00 0.00 63 1018.6
20260510065743 7 319 1.6 3.2 0.00 0.00 0.00 62 1018.7
20260510065242 7 309 0.0 3.2 0.00 0.00 0.00 62 1018.8
20260510064742 7 162 1.6 3.2 0.00 0.00 0.00 60 1018.7
20260510064242 8 265 0.0 1.6 0.00 0.00 0.00 59 1018.6
20260510063743 8 51 0.0 1.6 0.00 0.00 0.00 58 1018.6
20260510063242 8 298 0.0 3.2 0.00 0.00 0.00 58 1018.5
20260510062743 8 93 1.6 3.2 0.00 0.00 0.00 58 1018.6
20260510062241 8 93 0.0 3.2 0.00 0.00 0.00 58 1018.7
20260510061741 8 22 0.0 1.6 0.00 0.00 0.00 58 1018.7
20260510060735 8 291 0.0 1.6 0.00 0.00 0.00 57 1018.5
20260510055730 9 309 0.0 3.2 0.00 0.00 0.00 55 1018.0
20260510055230 9 9 1.6 3.2 0.00 0.00 0.00 55 1017.9
20260510054730 9 9 0.0 4.8 0.00 0.00 0.00 55 1017.7
20260510054231 9 309 1.6 6.4 0.00 0.00 0.00 55 1017.7
20260510053729 9 9 3.2 6.4 0.00 0.00 0.00 54 1017.5
20260510050727 10 9 4.8 8.0 0.00 0.00 0.00 54 1016.9
20260510050227 10 9 3.2 6.4 0.00 0.00 0.00 53 1016.9
20260510045726 10 19 4.8 8.0 0.00 0.00 0.00 52 1016.8
20260510045227 11 9 3.2 8.0 0.00 0.00 0.00 53 1016.8
20260510044725 11 334 3.2 6.4 0.00 0.00 0.00 52 1016.7
20260510044225 11 341 3.2 4.8 0.00 0.00 0.00 51 1016.6
20260510043726 11 16 3.2 6.4 0.00 0.00 0.00 52 1016.6
20260510043225 11 9 3.2 6.4 0.00 0.00 0.00 50 1016.5
20260510042724 12 24 3.2 6.4 0.00 0.00 0.00 49 1016.5
20260510042224 12 342 3.2 6.4 0.00 0.00 0.00 48 1016.3
20260510041724 12 325 1.6 6.4 0.00 0.00 0.00 51 1016.2
20260510041224 12 309 1.6 8.0 0.00 0.00 0.00 47 1015.9
20260510040723 12 346 3.2 8.0 0.00 0.00 0.00 49 1016.0
20260510040225 12 11 3.2 8.0 0.00 0.00 0.00 49 1015.9
20260510035223 12 341 3.2 6.4 0.00 0.00 0.00 51 1015.8
20260510034723 13 340 3.2 8.0 0.00 0.00 0.00 51 1015.7
20260510033723 13 336 3.2 8.0 0.00 0.00 0.00 47 1015.5
20260510032721 13 31 4.8 9.7 0.00 0.00 0.00 47 1015.2
20260510032221 13 319 4.8 8.0 0.00 0.00 0.00 46 1015.3
20260510031720 14 13 4.8 14.5 0.00 0.00 0.00 46 1015.1
20260510030721 14 344 3.2 8.0 0.00 0.00 0.00 48 1014.9
20260510030221 14 30 3.2 8.0 0.00 0.00 0.00 47 1014.8
20260510025720 14 9 3.2 14.5 0.00 0.00 0.00 45 1014.7
20260510025219 14 337 4.8 14.5 0.00 0.00 0.00 48 1014.7
20260510024719 14 9 6.4 14.5 0.00 0.00 0.00 45 1014.5
20260510024219 15 346 3.2 9.7 0.00 0.00 0.00 44 1014.3
20260510023718 15 338 4.8 8.0 0.00 0.00 0.00 43 1014.2
20260510023218 15 346 4.8 8.0 0.00 0.00 0.00 43 1014.1
20260510021216 16 9 1.6 4.8 0.00 0.00 0.00 39 1013.6
20260510020719 16 19 1.6 4.8 0.00 0.00 0.00 40 1013.6
20260510020216 16 319 3.2 6.4 0.00 0.00 0.00 40 1013.5
20260510015716 16 341 1.6 8.0 0.00 0.00 0.00 40 1013.4
20260510015215 16 344 3.2 8.0 0.00 0.00 0.00 39 1013.3
20260510014215 17 338 3.2 8.0 0.00 0.00 0.00 39 1013.0
20260510013214 17 30 1.6 6.4 0.00 0.00 0.00 39 1012.7
20260510012206 18 9 3.2 9.7 0.00 0.00 0.00 38 1012.5
20260510011706 18 348 6.4 11.3 0.00 0.00 0.00 36 1012.3
20260510011207 18 23 3.2 11.3 0.00 0.00 0.00 38 1012.2
20260510010705 19 40 3.2 11.3 0.00 0.00 0.00 38 1012.1
20260510010206 19 34 6.4 12.9 0.00 0.00 0.00 37 1012.1
20260510005704 19 33 6.4 12.9 0.00 0.00 0.00 39 1012.0
20260510005203 19 329 4.8 12.9 0.00 0.00 0.00 38 1011.9
20260510004704 20 39 4.8 16.1 0.00 0.00 0.00 38 1011.9
20260510004203 20 54 6.4 16.1 0.00 0.00 0.00 40 1011.8
20260510003702 20 38 4.8 16.1 0.00 0.00 0.00 44 1011.7
20260510003202 20 9 8.0 16.1 0.00 0.00 0.00 43 1011.7
20260510002702 20 332 6.4 11.3 0.00 0.00 0.00 42 1011.6
20260510002200 20 16 4.8 11.3 0.00 0.00 0.00 41 1011.6
20260510001700 20 13 6.4 12.9 0.00 0.00 0.00 42 1011.5
20260510001200 20 51 4.8 14.5 0.00 0.00 0.00 42 1011.6
20260510000700 20 11 4.8 14.5 0.00 0.00 0.00 42 1011.6
20260510000200 19 38 6.4 14.5 0.00 0.00 0.00 46 1011.6
20260509235659 19 344 6.4 14.5 0.00 0.00 0.00 45 1011.5
20260509235159 19 342 6.4 14.5 0.00 0.00 0.00 47 1011.5
20260509234659 19 313 6.4 14.5 0.00 0.00 0.00 46 1011.4
20260509233657 20 346 8.0 19.3 0.00 0.00 0.00 48 1011.5
20260509233156 20 344 8.0 19.3 0.00 0.00 0.00 46 1011.5
20260509232656 20 344 8.0 16.1 0.00 0.00 0.00 47 1011.4
20260509232156 20 350 6.4 14.5 0.00 0.00 0.00 50 1011.4
20260509231645 20 23 6.4 17.7 0.00 0.00 0.00 49 1011.3
20260509230645 20 342 8.0 16.1 0.00 0.00 0.00 48 1011.3
20260509230145 20 18 9.7 17.7 0.00 0.00 0.00 48 1011.3
20260509223643 20 9 8.0 17.7 0.00 0.00 0.00 49 1011.3
20260509222642 20 9 8.0 17.7 0.00 0.00 0.00 48 1011.2
20260509222143 20 350 8.0 17.7 0.00 0.00 0.00 47 1011.2
20260509221642 20 325 9.7 24.1 0.00 0.00 0.00 48 1011.1
20260509221143 20 344 8.0 24.1 0.00 0.00 0.00 50 1011.1
20260509220642 20 327 9.7 20.9 0.00 0.00 0.00 49 1011.1
20260509220143 20 9 9.7 20.9 0.00 0.00 0.00 47 1011.0
20260509215643 20 317 9.7 20.9 0.00 0.00 0.00 49 1011.0
20260509214641 20 346 6.4 14.5 0.00 0.00 0.00 48 1010.8
20260509214142 20 336 6.4 16.1 0.00 0.00 0.00 47 1010.8
20260509213641 20 347 8.0 17.7 0.00 0.00 0.00 47 1010.8
20260509213141 20 337 6.4 25.7 0.00 0.00 0.00 48 1010.8
20260509212640 20 9 11.3 25.7 0.00 0.00 0.00 48 1010.9
20260509212140 20 342 11.3 29.0 0.00 0.00 0.00 48 1010.6
20260509211640 20 341 16.1 29.0 0.00 0.00 0.00 46 1010.6
20260509211139 20 339 14.5 27.4 0.00 0.00 0.00 45 1010.6
20260509210639 21 323 16.1 25.7 0.00 0.00 0.00 45 1010.6
20260509210139 21 317 14.5 27.4 0.00 0.00 0.00 44 1010.5
20260509205638 21 339 16.1 27.4 0.00 0.00 0.00 44 1010.4
20260509204638 21 15 17.7 32.2 0.00 0.00 0.00 44 1010.4
20260509204139 21 17 17.7 32.2 0.00 0.00 0.00 44 1010.4
20260509203637 21 29 17.7 29.0 0.00 0.00 0.00 40 1010.3
20260509203140 22 13 16.1 30.6 0.00 0.00 0.00 40 1010.2
20260509202637 22 15 16.1 30.6 0.00 0.00 0.00 41 1010.2
20260509202137 22 335 17.7 29.0 0.00 0.00 0.00 41 1009.9
20260509201637 23 16 16.1 29.0 0.00 0.00 0.00 40 1009.9
20260509201135 23 351 17.7 29.0 0.00 0.00 0.00 40 1009.7
20260509200636 24 314 17.7 29.0 0.00 0.00 0.00 36 1009.6
20260509200136 24 351 12.9 25.7 0.00 0.00 0.00 37 1009.5
20260509195637 25 24 12.9 22.5 0.00 0.00 0.00 37 1009.3
20260509194134 24 306 11.3 27.4 0.00 0.00 0.00 38 1009.2
20260509193634 24 340 9.7 22.5 0.00 0.00 0.00 36 1009.1
20260509193134 24 30 9.7 27.4 0.00 0.00 0.00 33 1009.0
20260509192634 24 305 8.0 27.4 0.00 0.00 0.00 33 1008.8
20260509192133 25 344 9.7 30.6 0.00 0.00 0.00 30 1008.8
20260509191634 25 324 17.7 30.6 0.00 0.00 0.00 32 1008.7
20260509191133 25 344 6.4 27.4 0.00 0.00 0.00 39 1008.7
20260509190633 25 348 14.5 27.4 0.00 0.00 0.00 33 1008.6
20260509190133 26 18 6.4 19.3 0.00 0.00 0.00 26 1008.6
20260509185632 26 41 6.4 16.1 0.00 0.00 0.00 32 1008.6
20260509184631 25 338 4.8 16.1 0.00 0.00 0.00 33 1008.5
20260509184132 25 9 6.4 16.1 0.00 0.00 0.00 36 1008.5
20260509183631 24 277 4.8 17.7 0.00 0.00 0.00 38 1008.5
20260509183131 24 66 6.4 17.7 0.00 0.00 0.00 32 1008.7
20260509182631 24 38 8.0 25.7 0.00 0.00 0.00 27 1008.7
20260509182132 24 33 14.5 29.0 0.00 0.00 0.00 32 1008.7
20260509181631 25 22 11.3 29.0 0.00 0.00 0.00 34 1008.6
20260509181129 25 325 12.9 29.0 0.00 0.00 0.00 30 1008.4
20260509180629 25 15 12.9 24.1 0.00 0.00 0.00 29 1008.3
20260509180129 25 9 6.4 20.9 0.00 0.00 0.00 33 1008.2
20260509175129 24 291 8.0 24.1 0.00 0.00 0.00 37 1008.3
20260509174628 24 15 4.8 24.1 0.00 0.00 0.00 33 1008.3
20260509174127 24 336 6.4 22.5 0.00 0.00 0.00 32 1008.4
20260509173627 24 15 12.9 22.5 0.00 0.00 0.00 33 1008.5
20260509173126 24 336 6.4 17.7 0.00 0.00 0.00 36 1008.4
20260509172626 23 227 4.8 12.9 0.00 0.00 0.00 38 1008.5
20260509172127 23 325 3.2 16.1 0.00 0.00 0.00 38 1008.6
20260509171126 23 20 4.8 17.7 0.00 0.00 0.00 37 1008.8
20260509170625 23 341 8.0 17.7 0.00 0.00 0.00 36 1008.7
20260509170125 23 344 11.3 17.7 0.00 0.00 0.00 33 1008.7
20260509165625 23 339 6.4 17.7 0.00 0.00 0.00 34 1008.6
20260509165126 23 9 4.8 17.7 0.00 0.00 0.00 37 1008.6
20260509164623 23 51 6.4 17.7 0.00 0.00 0.00 37 1008.6
20260509163123 23 15 9.7 17.7 0.00 0.00 0.00 37 1008.5
20260509162622 23 9 3.2 17.7 0.00 0.00 0.00 36 1008.6
20260509161622 23 51 4.8 19.3 0.00 0.00 0.00 39 1008.4
20260509161122 23 347 3.2 19.3 0.00 0.00 0.00 38 1008.4
20260509160621 23 9 6.4 17.7 0.00 0.00 0.00 37 1008.5
20260509155622 22 336 9.7 19.3 0.00 0.00 0.00 37 1008.6
20260509155122 22 286 6.4 14.5 0.00 0.00 0.00 40 1008.6
20260509154622 22 309 3.2 22.5 0.00 0.00 0.00 40 1008.8
20260509154120 22 24 11.3 22.5 0.00 0.00 0.00 38 1009.0
20260509153619 22 279 6.4 22.5 0.00 0.00 0.00 36 1009.0
20260509153119 22 334 8.0 22.5 0.00 0.00 0.00 39 1009.2
20260509152618 21 301 6.4 20.9 0.00 0.00 0.00 39 1009.2
20260509152118 21 317 8.0 19.3 0.00 0.00 0.00 42 1009.0
20260509151618 21 321 6.4 17.7 0.00 0.00 0.00 42 1008.8
20260509150117 20 26 6.4 22.5 0.00 0.00 0.00 44 1008.8
20260509145616 20 342 6.4 22.5 0.00 0.00 0.00 46 1008.9
20260509145118 20 346 8.0 27.4 0.00 0.00 0.00 48 1008.9
20260509144616 19 347 14.5 27.4 0.00 0.00 0.00 46 1008.4
20260509144116 19 346 9.7 20.9 0.00 0.00 0.00 53 1008.7
20260509143615 18 9 1.6 12.9 0.00 0.00 0.00 45 1007.8
20260509143115 18 243 6.4 12.9 0.00 0.00 0.00 47 1007.6
20260509142613 17 219 6.4 9.7 0.00 0.00 0.00 48 1007.6
20260509142113 17 221 3.2 6.4 0.00 0.00 0.00 52 1007.6
20260509141612 17 252 3.2 6.4 0.00 0.00 0.00 57 1007.6
20260509140612 16 245 4.8 8.0 0.00 0.00 0.00 59 1007.6
20260509140111 15 284 3.2 6.4 0.00 0.00 0.00 66 1007.7
20260509135614 14 196 4.8 6.4 0.00 0.00 0.00 71 1007.7
20260509134610 12 250 1.6 3.2 0.00 0.00 0.00 82 1007.6
20260509134110 11 178 1.6 3.2 0.00 0.00 0.00 86 1007.6
20260509133609 10 137 1.6 3.2 0.00 0.00 0.00 88 1007.6
20260509132604 9 221 1.6 3.2 0.00 0.00 0.00 89 1007.7
20260509132104 8 126 1.6 4.8 0.00 0.00 0.00 90 1007.6
20260509131603 8 124 3.2 4.8 0.00 0.00 0.00 90 1007.5
20260509131103 8 137 1.6 3.2 0.00 0.00 0.00 90 1007.6
20260509130602 7 212 1.6 3.2 0.00 0.00 0.00 90 1007.6
20260509125601 7 190 0.0 3.2 0.00 0.00 0.00 90 1007.4
20260509125101 6 137 1.6 3.2 0.00 0.00 0.00 90 1007.5
20260509124600 6 265 0.0 3.2 0.00 0.00 0.00 90 1007.5
20260509123600 5 309 0.0 1.6 0.00 0.00 0.00 90 1007.5
20260509123100 5 9 0.0 1.6 0.00 0.00 0.00 89 1007.7
20260509122554 5 178 1.6 3.2 0.00 0.00 0.00 90 1007.6
20260509122054 5 319 0.0 3.2 0.00 0.00 0.00 90 1007.5
20260509121549 5 144 1.6 3.2 0.00 0.00 0.00 89 1007.4
20260509121049 5 137 1.6 3.2 0.00 0.00 0.00 89 1007.5
20260509120048 4 178 0.0 1.6 0.00 0.00 0.00 89 1007.5
20260509115547 4 205 0.0 1.6 0.00 0.00 0.00 89 1007.4
20260509115042 4 334 0.0 1.6 0.00 0.00 0.00 89 1007.4
20260509114041 4 9 0.0 3.2 0.00 0.00 0.00 89 1007.2
20260509113541 4 9 0.0 1.6 0.00 0.00 0.00 88 1007.2
20260509113041 4 178 0.0 1.6 0.00 0.00 0.00 88 1007.2
20260509112541 4 119 0.0 1.6 0.00 0.00 0.00 88 1007.2
20260509111539 4 137 0.0 1.6 0.00 0.00 0.00 88 1007.1
20260509111038 4 265 0.0 1.6 0.00 0.00 0.00 88 1007.1
20260509110033 4 178 0.0 1.6 0.00 0.00 0.00 88 1006.9
20260509105532 4 34 0.0 1.6 0.00 0.00 0.00 87 1006.9
20260509105032 4 193 0.0 1.6 0.00 0.00 0.00 87 1007.1
20260509104531 4 119 0.0 1.6 0.00 0.00 0.00 87 1007.1
20260509103526 5 265 0.0 1.6 0.00 0.00 0.00 87 1007.2
20260509103021 5 309 0.0 1.6 0.00 0.00 0.00 87 1007.2
20260509102515 5 119 0.0 3.2 0.00 0.00 0.00 87 1007.1
20260509102014 5 119 1.6 3.2 0.00 0.00 0.00 86 1007.1
20260509101514 5 178 0.0 1.6 0.00 0.00 0.00 86 1007.1
20260509100515 5 309 0.0 1.6 0.00 0.00 0.00 85 1007.1
20260509100013 5 9 0.0 1.6 0.00 0.00 0.00 85 1007.2
20260509095513 5 265 0.0 3.2 0.00 0.00 0.00 85 1007.1
20260509094513 5 131 1.6 3.2 0.00 0.00 0.00 84 1007.3
20260509094012 5 108 0.0 1.6 0.00 0.00 0.00 84 1007.2
20260509093511 5 325 0.0 1.6 0.00 0.00 0.00 84 1007.1
20260509092512 5 196 1.6 3.2 0.00 0.00 0.00 83 1007.1
20260509092010 5 232 0.0 1.6 0.00 0.00 0.00 83 1007.1
20260509091510 6 93 0.0 1.6 0.00 0.00 0.00 83 1007.1
20260509091010 5 126 0.0 1.6 0.00 0.00 0.00 83 1007.2
20260509090500 5 309 0.0 1.6 0.00 0.00 0.00 82 1007.2
20260509085959 5 309 0.0 1.6 0.00 0.00 0.00 81 1007.1
20260509084948 6 334 0.0 1.6 0.00 0.00 0.00 80 1007.1
20260509084442 6 265 0.0 1.6 0.00 0.00 0.00 80 1006.9
20260509083942 6 178 0.0 1.6 0.00 0.00 0.00 80 1006.9
20260509083439 6 111 0.0 1.6 0.00 0.00 0.00 80 1007.1
20260509082932 6 93 0.0 3.2 0.00 0.00 0.00 80 1007.1
20260509081931 6 153 0.0 1.6 0.00 0.00 0.00 78 1007.1
20260509081431 6 126 0.0 1.6 0.00 0.00 0.00 77 1007.1
20260509080931 7 9 0.0 1.6 0.00 0.00 0.00 77 1007.1
20260509080430 7 291 0.0 1.6 0.00 0.00 0.00 77 1007.1
20260509075920 7 309 0.0 1.6 0.00 0.00 0.00 76 1007.1
20260509075420 7 9 0.0 1.6 0.00 0.00 0.00 77 1006.9
20260509074914 7 41 0.0 1.6 0.00 0.00 0.00 76 1007.1
20260509074415 7 291 0.0 3.2 0.00 0.00 0.00 75 1007.1
20260509073914 7 111 0.0 3.2 0.00 0.00 0.00 74 1007.1
20260509073413 8 119 0.0 3.2 0.00 0.00 0.00 73 1007.1
20260509072915 8 137 0.0 3.2 0.00 0.00 0.00 72 1007.2
20260509072413 8 178 0.0 1.6 0.00 0.00 0.00 71 1007.2